EHI
0 0 0 0 0 0 0 0 0 0 0 0 0 0 0 0 0 0 0 0 0 0 0 0 0 0 0 0 0 0 0 0 0 0 0 0 0 0 0 0 0 0 0
0 0 0 0 0 0 0 0 0 0 0 0 0 0 0 0 0 0 0 0 0 0 0 0 0 0 0 0 0 0 0 0 0 0 0 0 0 0 0 0 0 0 0
0 0 0 0 0 0 0 0 0 0 0 0 0 0 0 0 0 0 0 0 0 0 0 0 0 0 0 0 0 0 0 0 0 0 0 0 0 0 0 0 0 0 0
0 0 0 0 0 0 0 0 0 0 0 0 0 0 0 0 0 0 0 0 0 0 0 0 0 0 0 0 0 0 0 0 0 0 0 0 0 0 0 0 0 0 0
0 0 0 0 0 0 0 0 0 0 0 0 0 0 0 0 0 0 0 0 0 0 0 0 0 0 0 0 0 0 0 0 0 0 0 0 0 0 0 0 0 0 0
0 0 0 0 0 0 0 0 0 0 0 0 0 0 0 0 0 0 0 0 0 0 0 0 0 0 0 0 0 0 0 0 0 0 0 0 0 0 0 0 0 0 0
0 0 0 0 0 0 0 0 0 0 0 0 0 0 0 0 0 0 0 0 0 0 0 0 0 0 0 0 0 0 0 0 0 0 0 0 0 0 0 0 0 0 0
0 0 0 0 0 0 0 0 0 0 0 0 0 0 0 0 0 0 0 0 0 0 0 0 0 0 0 0 0 0 0 0 0 0 0 0 0 0 0 0 0 0 0
0 0 0 0 0 0 0 0 0 0 0 0 0 0 0 0 0 0 0 0 0 0 0 0 0 0 0 0 0 0 0 0 0 0 0 0 0 0 0 0 0 0 0
0 0 0 0 0 0 0 0 0 0 0 0 0 0 0 0 0 0 0 0 0 0 0 0 0 0 0 0 0 0 0 0 0 0 0 0 0 0 0 0 0 0 0
0 0 0 0 0 0 0 0 0 0 0 0 0 0 0 0 0 0 0 0 0 0 0 0 0 0 0 0 0 0 0 0 0 0 0 0 0 0 0 0 0 0 0
0 0 0 0 0 0 0 0 0 0 0 0 0 0 0 0 0 0 0 0 0 0 0 0 0 0 0 0 0 0 0 0 0 0 0 0 0 0 0 0 0 0 0
0 0 0 0 0 0 0 0 0 0 0 0 0 0 0 0 0 0 0 0 0 0 0 0 0 0 0 0 0 0 0 0 0 0 0 0 0 0 0 0 0 0 0
0 0 0 0 0 0 0 0 0 0 0 0 0 0 0 0 0 0 0 0 0 0 0 0 0 0 0 0 0 0 0 0 0 0 0 0 0 0 0 0 0 0 0
0 0 0 0 0 0 0 0 0 0 0 0 0 0 0 0 0 0 0 0 0 0 0 0 0 0 0 0 0 0 0 0 0 0 0 0 0 0 0 0 0 0 0
0 0 0 0 0 0 0 0 0 0 0 0 0 0 0 0 0 0 0 0 0 0 0 0 0 0 0 0 0 0 0 0 0 0 0 0 0 0 0 0 0 0 0
0 0 0 0 0 0 0 0 0 0 0 0 0 0 0 0 0 0 0 0 0 0 0 0 0 0 0 0 0 0 0 0 0 0 0 0 0 0 0 0 0 0 0
0 0 0 0 0 0 0 0 0 0 0 0 0 0 0 0 0 0 0 0 0 0 0 0 0 0 0 0 0 0 0 0 0 0 0 0 0 0 0 0 0 0 0
0 0 0 0 0 0 0 0 0 0 0 0 0 0 0 0 0 0 0 0 0 0 0 0 0 0 0 0 0 0 0 0 0 0 0 0 0 0 0 0 0 0 0
0 0 0 0 0 0 0 0 0 0 0 0 0 0 0 0 0 0 0 0 0 0 0 0 0 0 0 0 0 0 0 0 0 0 0 0 0 0 0 0 0 0 0
0 0 0 0 0 0 0 0 0 0 0 0 0 0 0 0 0 0 0 0 0 0 0 0 0 0 0 0 0 0 0 0 0 0 0 0 0 0 0 0 0 0 0
0 0 0 0 0 0 0 0 0 0 0 0 0 0 0 0 0 0 0 0 0 0 0 0 0 0 0 0 0 0 0 0 0 0 0 0 0 0 0 0 0 0 0
0 0 0 0 0 0 0 0 0 0 0 0 0 0 0 0 0 0 0 0 0 0 0 0 0 0 0 0 0 0 0 0 0 0 0 0 0 0 0 0 0 0 0
0 0 0 0 0 0 0 0 0 0 0 0 0 0 0 0 0 0 0 0 0 0 0 0 0 0 0 0 0 0 0 0 0 0 0 0 0 0 0 0 0 0 0
0 0 0 0 0 0 0 0 0 0 0 0 0 0 0 0 0 0 0 0 0 0 0 0 0 0 0 0 0 0 0 0 0 0 0 0 0 0 0 0 0 0 0
0 0 0 0 0 0 0 0 0 0 0 0 0 0 0 0 0 0 0 0 0 0 0 0 0 0 0 0 0 0 0 0 0 0 0 0 0 0 0 0 0 0 0
Wind_Speed
6 6 6 4 4 3 4 4 3 2 0 3 3 3 3 4 4 4 4 5 6 6 6 7 7 7 6 5 5 6 6 8 11 9 7 8 9 8 8 7 8 8 9
6 5 4 3 2 3 4 4 2 1 2 3 4 4 5 5 4 5 6 7 7 7 8 7 8 7 7 6 5 7 7 7 9 12 8 8 9 9 9 9 10 10 8
5 5 2 2 2 3 4 3 1 1 3 3 4 4 5 5 6 8 9 9 9 9 9 9 8 8 7 6 7 8 8 9 8 10 10 8 8 9 9 10 10 7 9
4 3 1 1 2 2 3 2 2 3 4 4 5 6 6 8 10 10 10 9 9 9 9 8 8 7 7 7 8 8 8 9 9 9 9 9 8 9 7 7 7 5 4
4 2 0 1 2 2 3 3 4 5 6 6 6 6 6 7 8 9 9 9 9 10 9 8 8 11 12 9 10 9 9 9 9 9 9 9 8 7 6 5 6 5 5
5 3 1 1 2 2 2 3 4 5 6 6 7 7 7 5 6 7 7 9 9 10 9 8 9 10 10 13 17 18 16 12 10 9 9 10 10 9 7 7 6 6 6
4 4 3 2 2 3 4 5 5 5 6 6 6 5 3 4 3 2 8 9 10 9 9 8 9 11 12 9 13 18 17 19 18 13 13 13 12 10 9 9 8 8 8
1 2 2 1 3 3 3 4 5 5 5 5 5 5 5 1 1 3 10 10 9 8 8 9 9 11 11 11 13 13 13 13 14 11 10 11 11 9 8 10 10 10 9
1 0 1 2 2 3 5 5 5 5 4 4 5 6 6 3 1 4 8 9 8 9 9 10 10 10 12 14 14 13 12 11 13 13 11 12 14 15 13 9 8 7 6
2 1 1 2 3 3 5 5 4 4 4 5 6 6 6 6 3 4 9 9 9 10 9 8 10 10 14 17 13 11 11 10 8 8 8 7 7 7 9 6 4 3 2
3 3 3 3 3 6 5 4 4 4 5 5 6 6 6 6 6 7 10 9 9 10 9 8 7 14 17 18 15 9 10 10 7 6 5 4 3 3 4 6 6 4 3
3 4 4 5 6 6 5 4 4 5 5 5 6 7 6 6 8 11 13 12 12 10 9 8 9 16 18 16 11 11 11 7 3 2 3 3 3 3 4 5 6 6 5
4 4 4 6 6 5 5 5 5 5 5 6 6 7 8 8 9 14 15 15 15 10 8 14 16 16 14 9 11 13 9 5 3 3 3 3 3 2 2 3 4 4 4
3 2 4 5 5 5 4 5 5 6 6 6 6 7 7 7 7 9 9 10 11 10 9 11 13 12 10 9 9 8 6 5 4 4 3 3 2 3 4 3 3 3 3
1 2 4 6 5 4 5 5 5 5 4 4 5 5 6 6 9 14 10 8 7 8 9 6 5 6 6 6 6 6 5 5 5 4 3 3 3 4 4 3 2 3 3
4 4 5 5 4 4 3 3 2 2 4 2 2 3 5 6 11 14 15 14 12 13 8 6 7 7 6 6 6 6 5 5 4 4 4 4 3 3 3 3 3 4 6
5 5 4 4 4 3 3 2 1 3 6 5 2 3 7 10 11 14 16 15 10 11 6 6 7 7 6 6 5 5 5 4 4 4 4 4 3 4 4 4 4 5 6
5 4 3 3 3 3 2 2 3 3 3 2 1 3 8 10 10 13 15 11 8 8 6 7 7 7 6 6 6 5 5 5 4 4 4 4 4 4 4 4 4 6 7
6 4 3 2 2 2 2 3 3 4 4 4 5 5 8 9 8 11 11 8 7 7 7 7 7 7 7 6 6 6 6 5 6 5 5 4 3 3 4 4 4 6 6
3 1 3 3 3 3 3 3 4 4 4 3 4 6 7 7 7 8 7 7 7 7 7 7 7 7 7 7 7 6 6 6 7 6 5 4 3 2 2 3 3 4 4
2 2 1 3 6 6 5 5 4 4 4 4 4 5 6 6 6 7 6 6 6 7 7 7 7 7 7 6 7 8 8 8 8 7 6 4 3 2 2 2 3 3 4
4 4 4 5 5 5 6 6 6 6 6 6 5 5 5 5 5 5 6 6 6 6 6 6 6 6 6 6 6 7 8 8 9 9 7 5 3 3 3 4 4 4 4
4 5 5 6 6 5 6 7 7 7 7 7 6 6 6 5 4 5 6 6 6 6 5 5 6 6 6 5 5 5 6 7 8 9 8 4 3 4 4 5 6 5 5
7 8 8 7 7 7 7 7 7 7 7 7 7 6 5 4 3 4 5 5 5 5 5 5 5 8 9 6 5 5 6 8 8 7 10 5 4 4 4 5 5 5 5
8 7 7 7 7 7 7 7 7 7 7 7 7 6 5 5 4 4 4 4 5 5 6 5 5 6 9 10 10 9 11 12 10 8 7 6 5 5 5 4 4 4 5
8 8 7 6 6 6 6 6 6 7 7 7 6 6 6 6 6 5 5 5 5 6 6 5 7 9 12 10 12 11 10 10 11 11 7 4 5 6 5 4 5 5 5
Wind_Direction
99 90 104 114 127 137 118 118 109 87 260 265 292 303 296 285 279 280 284 289 292 296 299 299 296 294 290 288 286 282 275 273 280 285 285 288 291 294 293 287 279 266 263
99 94 96 111 136 146 122 110 120 126 290 311 313 308 307 316 326 325 328 337 339 332 324 317 314 315 316 312 307 299 292 286 285 291 294 295 295 296 286 277 277 270 263
106 114 131 160 141 107 104 98 56 330 309 312 319 327 337 350 10 19 16 4 349 334 325 322 322 323 318 316 312 302 297 294 292 291 292 289 289 287 285 283 276 272 273
68 86 103 82 94 92 80 59 13 359 345 360 359 355 2 34 41 27 10 349 335 324 318 315 311 308 304 303 299 291 293 294 290 287 287 288 286 283 283 284 289 289 293
12 360 69 129 103 70 50 34 30 17 6 8 357 359 11 56 45 27 360 340 324 310 306 302 298 300 301 304 302 299 294 288 286 285 286 287 287 293 296 304 307 311 300
342 324 5 38 58 56 42 58 44 25 11 9 6 8 14 50 67 35 357 327 309 305 306 307 306 303 312 310 305 304 300 292 288 284 284 284 287 292 299 300 299 298 291
355 355 357 352 42 44 31 43 33 25 20 13 8 8 16 115 98 350 336 318 310 308 311 315 318 320 319 313 311 306 298 290 284 280 279 279 282 286 292 291 284 281 278
324 303 312 26 64 45 48 40 34 34 24 0 355 359 343 76 184 320 330 323 316 316 321 320 320 320 320 324 314 302 292 285 278 276 273 277 282 285 284 282 280 275 269
205 224 45 42 39 37 48 41 40 20 7 352 359 348 337 340 262 334 344 328 325 326 323 318 316 316 321 318 309 299 294 289 282 278 277 278 281 282 280 274 262 256 259
162 145 95 45 15 36 56 42 25 358 3 358 355 342 335 336 0 15 352 338 335 328 317 312 316 325 321 317 313 301 294 295 301 306 301 295 290 292 303 297 283 258 247
182 145 88 36 13 60 52 40 22 11 12 0 349 339 339 350 11 23 359 347 336 321 316 322 327 329 325 322 318 307 299 297 298 300 305 313 324 343 8 21 25 21 15
127 97 73 56 36 42 38 41 39 17 7 5 352 348 353 4 18 6 352 340 329 321 321 328 328 327 326 325 328 333 332 326 320 337 347 352 357 18 43 45 38 34 27
86 76 77 80 74 50 39 38 36 24 15 10 3 357 356 359 4 357 344 333 331 330 326 329 328 327 330 334 343 349 357 9 12 11 9 1 351 14 67 59 44 22 15
76 80 105 96 89 74 49 38 40 26 18 11 4 353 349 349 355 346 336 330 332 334 332 325 325 331 339 340 345 356 4 8 6 7 358 344 359 44 53 42 25 357 7
92 87 98 86 76 76 71 47 44 63 44 12 1 346 343 344 336 326 328 333 332 329 327 329 340 342 352 354 353 355 360 4 8 358 346 347 27 62 62 43 15 1 24
44 57 76 78 67 62 86 115 99 102 166 207 265 312 342 345 334 337 341 343 345 343 347 351 349 348 352 357 355 355 357 1 355 345 341 354 40 66 62 42 31 39 44
59 44 56 63 69 61 46 37 76 177 204 215 234 348 355 352 354 351 347 343 357 360 1 354 351 349 352 356 352 351 351 347 343 340 345 6 43 61 60 54 52 59 57
85 82 68 84 77 66 62 51 41 34 35 25 195 27 5 2 10 4 353 355 6 7 360 354 351 348 350 351 347 348 349 351 349 347 354 13 45 68 71 64 65 76 73
44 43 18 50 82 75 70 70 57 44 29 15 8 20 18 7 16 13 5 8 0 357 354 352 350 348 349 351 350 351 358 0 1 358 359 11 37 66 80 84 85 95 95
107 44 329 10 42 44 55 67 65 57 42 25 22 17 11 13 11 6 5 1 358 354 352 350 349 350 350 353 353 356 2 2 1 358 355 4 25 53 86 97 99 95 95
82 112 226 31 40 21 21 41 60 61 50 42 54 47 20 23 14 1 357 357 354 350 348 346 347 348 348 351 357 2 8 5 359 354 353 1 22 24 41 88 94 87 94
23 35 39 44 61 36 17 31 40 50 51 47 62 77 62 37 20 4 356 353 349 347 344 342 343 343 345 356 4 7 7 3 355 348 345 353 14 20 32 60 77 74 77
29 40 42 41 42 54 41 38 41 44 45 43 49 58 60 45 21 5 358 352 349 348 346 345 344 345 347 350 358 5 2 351 339 336 336 348 21 30 35 52 63 63 58
49 41 39 35 37 38 41 41 39 43 46 44 47 56 60 55 38 17 359 352 350 348 347 346 344 341 347 355 356 1 358 345 337 333 336 358 32 43 50 56 62 66 63
49 46 45 41 38 40 42 44 43 44 45 46 47 48 51 52 48 39 13 355 351 352 354 353 351 350 353 6 8 359 346 342 346 344 339 358 29 46 54 55 50 55 63
45 44 47 46 45 50 48 46 47 50 48 47 46 46 45 45 45 43 32 11 1 359 1 359 8 19 10 2 357 351 343 341 342 343 339 359 28 33 34 37 45 53 66